SCP
0 0 0 0 0 0 0 0 0 0 0 0 0 0 0 0 0 0 0 0 0 0 0 0 0 0 0 0 0 0 0 0 0 0 0 0 0 0 0 0 0 0 0 0 0 0 0 0 0
0 0 0 0 0 0 0 0 0 0 0 0 0 0 0 0 0 0 0 0 0 0 0 0 0 0 0 0 0 0 0 0 0 0 0 0 0 0 0 0 0 0 0 0 0 0 0 0 0
0 0 1 0 0 0 0 0 0 0 0 0 0 0 0 0 0 0 0 0 0 0 0 0 0 0 0 0 0 0 0 0 0 0 0 0 0 0 0 0 0 0 0 0 0 0 0 0 0
1 1 1 0 0 0 0 0 0 0 0 0 0 0 0 0 0 0 0 0 0 0 0 0 0 0 0 0 0 0 0 0 0 0 0 0 0 0 0 0 0 0 0 0 0 0 0 0 0
1 1 0 0 0 0 0 0 0 0 0 0 0 0 0 0 0 0 0 0 0 0 0 0 0 0 0 0 0 0 0 0 0 0 0 0 0 0 0 0 0 0 0 0 0 0 0 0 0
1 0 0 0 0 0 0 0 0 0 0 0 0 0 0 0 0 0 0 0 0 0 0 0 0 0 0 0 0 0 0 0 0 0 0 0 0 0 0 0 0 0 0 0 0 0 0 0 0
0 0 0 0 0 0 0 0 0 0 0 0 0 0 0 0 0 0 0 0 0 0 0 0 0 0 0 0 0 0 0 0 0 0 0 0 0 0 0 0 0 0 0 0 0 0 0 0 0
0 0 0 0 0 0 0 0 0 0 0 0 0 0 0 0 0 0 0 0 0 0 0 0 0 0 0 0 0 0 0 0 0 0 0 0 0 0 0 0 0 0 0 0 0 0 0 0 0
0 0 0 0 0 0 0 0 0 0 0 0 0 0 0 0 0 0 0 0 0 0 0 0 0 0 0 0 0 0 0 0 0 0 0 0 0 0 0 0 0 0 0 0 0 0 0 0 0
0 0 0 0 0 0 0 0 0 0 0 0 0 0 0 0 0 0 0 0 0 0 0 0 0 0 0 0 0 0 0 0 0 0 0 0 0 0 0 0 0 0 0 0 0 0 0 0 0
0 0 0 0 0 0 0 0 0 0 0 0 0 0 0 0 0 0 0 0 0 0 0 0 0 0 0 0 0 0 0 0 0 0 0 0 0 0 0 0 0 0 0 0 0 0 0 0 0
0 0 0 0 0 0 0 0 0 0 0 0 0 0 0 0 0 0 0 0 0 0 0 0 0 0 0 0 0 0 0 0 0 0 0 0 0 0 0 0 0 0 0 0 0 0 0 0 0
0 0 0 0 0 0 0 0 0 0 0 0 0 0 0 0 0 0 0 0 0 0 0 0 0 0 0 0 0 0 0 0 0 0 0 0 0 0 0 0 0 0 0 0 0 0 0 0 0
0 0 0 0 0 0 0 0 0 0 0 0 0 0 0 0 0 0 0 0 0 0 0 0 0 0 0 0 0 0 0 0 0 0 0 0 0 0 0 0 0 0 0 0 0 0 0 0 0
0 0 0 0 0 0 0 0 0 0 0 0 0 0 0 0 0 0 0 0 0 0 0 0 0 0 0 0 0 0 0 0 0 0 0 0 0 0 0 0 0 0 0 0 0 0 0 0 0
0 0 0 0 0 0 0 0 0 0 0 0 0 0 0 0 0 0 0 0 0 0 0 0 0 0 0 0 0 0 0 0 0 0 0 0 0 0 0 0 0 0 0 0 0 0 0 0 0
0 0 0 0 0 0 0 0 0 0 0 0 0 0 0 0 0 0 0 0 0 0 0 0 0 0 0 0 0 0 0 0 0 0 0 0 0 0 0 0 0 0 0 0 0 0 0 0 0
0 0 0 0 0 0 0 0 0 0 0 0 0 0 0 0 0 0 0 0 0 1 1 1 1 1 1 0 0 0 0 0 0 0 0 0 0 0 0 0 0 0 0 0 0 0 0 0 0
0 0 0 0 0 0 0 0 0 0 0 0 0 0 0 0 0 0 0 0 0 1 1 1 1 1 1 1 0 0 0 0 0 0 0 0 0 0 0 0 0 0 0 0 0 0 0 0 0
0 0 0 0 0 0 0 0 0 0 0 0 0 0 0 0 0 0 0 0 1 1 1 1 1 1 1 1 1 0 0 0 0 0 0 0 0 0 0 0 0 0 0 0 0 0 0 0 0
0 0 0 0 0 0 0 0 0 0 0 0 0 0 0 0 0 1 1 1 1 1 1 1 1 1 1 1 1 0 0 0 0 0 0 0 0 0 0 0 0 0 0 0 0 0 0 0 0
0 0 0 0 0 0 0 0 0 0 0 0 0 0 0 0 0 1 1 1 1 1 1 1 1 1 1 1 1 1 1 0 0 0 1 0 0 0 0 0 0 0 0 0 0 0 0 0 0
0 0 0 0 0 0 0 0 0 0 0 0 0 0 0 0 0 1 1 1 1 1 1 1 1 1 1 1 1 1 1 1 1 1 1 1 0 0 0 0 0 0 0 0 0 0 0 0 0
0 0 0 0 0 0 0 0 0 0 0 0 0 0 0 0 0 1 1 1 1 1 1 1 1 1 1 1 1 1 1 1 1 1 1 1 1 1 1 0 0 0 0 0 0 0 0 0 0
0 0 0 0 0 0 0 0 0 0 0 0 0 0 0 0 0 1 1 1 1 1 1 1 2 2 1 1 1 1 1 1 1 1 1 1 1 1 1 1 1 1 0 0 0 0 0 0 0
0 0 0 0 0 0 0 0 0 0 0 0 0 0 0 0 0 1 1 1 1 1 1 1 2 2 1 1 1 1 1 1 1 1 1 1 0 0 1 1 1 1 0 0 0 0 0 0 0
0 0 0 0 0 0 0 0 0 0 0 0 0 0 0 0 0 0 1 1 1 1 1 2 2 2 2 1 1 1 1 1 1 1 1 1 1 1 1 1 1 1 1 0 0 0 0 0 0
0 0 0 0 0 0 0 0 0 0 0 0 0 0 0 0 0 0 1 1 1 1 1 2 2 2 2 1 1 1 1 1 1 1 1 1 1 1 1 1 1 1 1 1 1 1 1 1 1
0 0 0 0 0 0 0 0 0 0 0 0 0 0 0 0 0 0 1 1 1 1 1 2 2 2 2 2 1 1 1 1 1 1 1 1 1 1 1 1 1 1 1 1 1 1 1 1 1
0 0 0 0 0 0 0 0 0 0 0 0 0 0 0 0 0 0 1 1 1 1 1 2 2 2 2 2 1 1 1 1 1 1 1 1 1 1 1 1 1 1 1 1 1 1 1 1 1
Wind_Speed
10 11 9 6 5 1 8 11 12 11 11 10 10 10 13 14 11 10 7 9 12 12 11 11 11 11 11 11 11 11 11 11 12 11 12 12 13 13 14 14 16 16 16 16 16 17 17 17 16
10 11 8 5 2 4 9 11 11 10 9 8 10 12 14 14 12 10 8 10 11 12 11 10 12 11 11 11 11 11 11 12 12 12 13 13 13 14 15 16 16 15 16 16 16 17 17 16 15
13 13 7 3 3 7 10 10 9 10 9 8 10 12 11 10 11 9 8 11 11 12 11 11 12 11 11 11 10 11 11 11 12 12 12 13 14 15 15 15 15 15 16 15 15 15 15 15 14
8 7 5 0 7 11 10 8 8 10 9 8 10 11 11 11 10 10 10 10 11 12 12 12 12 11 11 10 10 10 11 11 11 12 12 13 14 15 15 15 15 15 15 15 14 14 14 13 13
8 5 2 3 10 10 9 9 10 9 9 11 12 13 12 12 12 11 9 10 11 12 12 12 12 11 11 10 10 10 10 10 10 11 12 14 14 14 14 14 15 15 15 14 13 13 13 12 11
6 4 1 6 10 10 9 9 10 10 10 11 12 14 12 11 11 10 8 9 11 12 12 12 12 12 10 10 10 10 9 10 11 12 12 13 14 13 13 13 13 14 13 13 12 11 11 10 9
8 4 2 8 9 10 10 9 10 9 10 9 10 12 11 11 10 9 8 8 10 11 12 10 11 10 10 9 9 9 9 10 11 12 12 13 13 13 12 12 13 12 12 11 11 10 10 8 7
6 4 4 8 10 11 10 10 10 10 10 8 8 10 11 11 10 10 9 8 9 9 10 10 10 9 8 8 9 9 10 11 11 12 12 12 11 12 12 11 11 11 11 10 9 9 8 7 6
7 2 6 7 9 10 9 9 10 9 10 10 13 14 13 12 11 10 9 8 8 8 8 8 9 8 7 8 9 9 9 9 9 9 10 9 6 7 8 10 11 11 10 10 9 9 8 7 6
1 3 6 6 8 8 9 9 8 10 10 12 13 14 13 11 10 10 9 9 8 7 8 7 7 6 5 6 7 6 6 6 4 4 5 4 3 4 7 9 10 10 10 10 10 9 9 7 5
2 4 4 6 7 7 8 9 8 8 10 11 13 14 12 11 9 9 9 9 8 6 7 8 7 5 4 4 5 3 3 4 4 4 4 3 3 4 4 4 5 6 8 6 8 8 5 5 3
2 4 3 6 7 7 7 8 8 9 11 13 13 13 12 10 8 8 9 10 7 6 6 7 7 5 4 4 3 3 3 3 3 3 4 3 2 2 2 2 3 3 3 3 3 3 3 3 3
0 2 3 5 6 6 6 8 8 11 13 14 14 12 11 9 8 8 8 9 7 6 6 7 7 5 4 3 2 4 3 3 4 3 3 2 2 2 2 1 1 2 2 3 2 2 2 2 2
1 1 1 3 5 6 6 6 8 11 12 13 13 11 10 9 9 9 8 8 7 6 6 7 7 6 4 3 1 2 3 3 3 3 4 2 2 2 1 1 1 1 2 2 2 2 2 2 1
3 3 1 2 4 5 4 6 5 9 11 12 12 10 10 9 8 8 8 8 8 7 6 6 6 6 4 3 2 2 2 3 3 3 4 2 2 2 2 1 1 1 2 2 2 2 2 2 2
5 4 4 3 4 6 4 5 9 10 10 11 11 10 9 9 9 9 9 8 7 7 6 4 5 7 4 3 2 2 2 3 3 3 3 3 2 2 1 1 1 1 2 1 2 1 1 1 1
6 7 7 5 4 5 5 5 9 11 11 11 10 10 10 10 9 9 10 9 8 7 6 4 4 6 5 4 2 2 2 2 2 2 3 2 2 2 1 1 1 1 2 1 1 2 1 1 1
7 6 5 3 3 4 5 6 9 10 11 11 11 11 11 11 10 10 10 10 9 8 7 5 4 4 4 4 2 1 2 2 2 2 3 2 1 2 1 1 1 1 2 2 2 1 0 0 0
9 6 4 2 3 3 4 6 9 9 10 11 11 11 11 11 11 11 11 11 10 8 7 6 5 5 3 3 3 2 2 2 2 3 4 3 2 2 1 1 1 1 1 2 2 1 1 1 1
10 7 4 3 4 5 5 5 7 9 9 10 11 11 11 12 12 11 11 10 10 9 8 7 6 6 5 3 2 2 2 2 2 2 3 3 2 2 2 1 0 1 1 1 1 1 1 1 1
9 7 6 4 5 6 5 5 5 7 8 9 11 11 12 13 13 13 11 10 10 10 9 8 6 6 6 4 3 2 2 1 1 2 2 3 3 2 1 1 1 1 1 2 2 2 2 1 0
8 8 7 6 6 5 7 4 6 7 8 10 11 12 12 13 13 13 13 11 11 11 10 8 7 6 6 5 4 3 3 2 2 2 2 3 3 2 2 2 1 1 0 1 2 2 1 1 1
8 6 6 7 7 8 7 4 4 5 7 8 9 10 10 11 12 13 13 11 11 11 11 9 8 7 6 5 4 4 3 2 2 2 3 3 2 2 2 2 1 1 1 0 0 0 0 0 1
7 7 7 8 6 8 8 5 4 6 7 7 8 9 9 10 11 11 12 11 10 10 10 10 9 7 6 5 4 4 3 2 2 2 3 2 2 2 2 2 1 1 1 1 1 1 1 0 0
8 8 5 5 6 6 7 6 5 6 8 7 7 8 9 10 10 10 10 11 10 10 10 10 10 8 7 7 5 4 3 2 2 2 2 2 2 2 2 2 2 1 1 1 1 1 1 1 1
9 12 9 6 5 4 5 4 4 6 6 6 8 8 9 8 9 11 11 10 10 10 10 10 10 9 8 7 5 4 4 3 2 2 1 1 1 1 2 2 2 1 1 1 1 1 2 1 1
11 11 11 9 9 7 4 3 4 6 7 7 8 9 9 9 9 10 11 11 11 10 9 10 10 9 8 7 6 4 4 3 2 2 2 1 1 1 3 3 3 2 1 1 1 1 1 1 1
13 11 7 8 7 7 5 5 3 7 7 6 6 7 8 7 8 9 9 9 9 9 9 9 10 9 7 7 6 5 4 3 2 2 2 1 1 1 2 2 2 2 2 2 1 1 1 2 2
11 12 9 7 8 6 6 3 1 6 6 5 5 5 6 6 6 7 8 8 8 9 9 9 9 9 8 7 6 5 5 4 4 3 2 2 2 2 2 2 2 2 2 2 2 3 2 2 2
10 11 11 8 8 8 6 3 1 4 6 6 5 6 5 5 5 6 7 6 6 7 8 8 8 8 7 7 6 5 5 5 4 4 3 3 3 2 2 2 3 3 3 3 3 3 2 2 2
Wind_Direction
200 214 220 240 249 250 53 58 61 59 57 51 48 58 59 52 58 82 91 91 95 95 94 87 78 75 73 74 76 76 76 75 77 79 84 86 93 99 107 109 110 111 112 113 114 114 115 115 117
223 223 228 241 277 58 59 59 59 60 62 65 63 65 70 67 76 92 97 96 96 96 93 87 87 80 76 76 77 78 78 78 80 82 87 89 95 98 102 107 108 108 110 113 114 115 116 116 119
252 250 253 243 40 64 67 63 71 75 66 64 71 63 62 77 84 98 110 107 99 96 95 95 93 86 82 80 79 78 79 82 84 87 90 92 96 101 104 106 108 108 109 113 115 117 117 119 123
248 244 242 19 63 67 75 80 83 82 74 70 74 75 73 78 94 107 114 110 107 104 100 101 99 95 90 85 83 82 81 84 88 90 91 96 99 102 105 107 108 109 109 110 111 115 117 120 125
244 268 268 69 73 74 73 71 76 78 74 72 79 87 88 92 103 110 116 117 111 106 106 109 108 103 97 93 88 86 86 88 92 95 94 97 100 102 105 107 108 108 108 110 112 113 117 120 126
256 240 234 76 75 78 76 74 81 80 83 89 94 94 95 108 112 117 118 112 110 110 110 114 116 108 101 99 95 92 93 96 100 105 103 101 100 103 106 109 109 110 112 114 117 119 121 123 130
262 296 44 87 82 76 73 72 75 80 81 84 96 100 108 113 117 119 112 109 110 111 115 123 125 119 114 110 105 101 102 104 107 111 109 107 107 107 108 113 115 118 119 122 125 128 130 136 146
270 299 34 73 81 80 77 77 76 80 78 83 91 103 118 120 123 116 112 108 105 111 116 123 124 127 126 123 123 116 114 113 115 117 115 114 115 118 120 121 121 127 131 134 138 143 147 154 166
275 334 48 60 75 87 91 91 92 88 89 79 75 93 116 127 125 122 119 111 103 105 109 116 116 126 132 127 131 135 128 122 124 124 128 133 130 127 127 121 134 140 146 150 155 160 164 172 187
260 56 65 68 78 91 99 104 112 109 101 95 94 103 121 130 130 129 125 116 110 112 113 108 109 111 114 110 121 135 128 133 132 128 142 138 116 114 119 133 147 154 160 166 172 177 181 192 195
81 81 87 88 88 91 95 99 98 105 108 111 118 123 131 132 136 135 126 119 115 118 109 108 102 99 97 100 119 116 115 125 123 119 113 102 113 124 128 141 152 167 175 181 173 187 199 197 193
75 99 84 85 87 92 95 94 94 90 102 117 125 131 136 139 140 134 123 118 120 120 108 106 105 90 69 69 93 112 113 112 110 106 94 99 94 101 113 135 152 168 171 164 170 176 182 176 171
354 97 103 97 103 102 99 104 102 103 111 119 127 135 142 144 139 125 119 121 124 122 113 102 100 93 85 63 62 96 95 100 104 98 91 83 94 83 82 73 87 144 140 141 151 148 165 157 153
315 16 109 127 125 117 111 104 112 117 124 129 133 138 143 141 139 131 129 127 132 127 116 114 114 107 99 96 72 96 110 105 103 102 99 96 95 97 98 107 102 122 125 136 148 152 143 131 128
298 283 237 168 154 130 124 114 122 129 134 138 141 145 144 142 139 136 134 137 135 129 121 125 127 123 125 121 141 119 118 117 114 111 112 111 104 109 111 128 142 126 134 132 129 120 133 150 163
267 258 243 224 200 153 170 136 141 146 151 148 149 150 148 148 150 145 142 142 137 133 130 147 139 132 135 130 136 115 108 109 112 114 121 124 113 115 123 134 118 125 128 117 135 126 120 139 148
247 238 231 210 205 174 165 140 148 162 160 156 158 156 157 159 156 151 150 149 144 138 142 150 128 135 143 143 144 133 108 101 115 121 121 128 134 125 120 101 86 131 129 136 135 111 105 160 133
251 237 236 205 185 194 168 162 163 169 166 163 165 164 166 165 161 156 154 152 150 144 145 149 146 139 145 145 149 144 124 140 147 131 128 135 145 123 125 124 90 76 80 87 91 100 132 186 187
267 265 257 263 206 229 196 173 171 176 174 168 168 169 170 169 161 160 160 157 154 148 148 151 158 149 155 156 160 156 156 171 155 154 141 145 151 130 124 77 94 105 111 124 140 142 175 169 144
266 274 253 230 235 233 222 194 184 181 186 175 172 173 171 166 162 165 167 161 159 153 152 156 162 160 169 169 171 170 156 167 158 135 134 148 155 157 164 148 175 128 141 140 160 144 168 216 164
254 260 264 250 246 248 234 223 213 192 187 182 177 174 175 172 168 167 169 166 163 159 160 167 168 163 175 170 172 174 146 165 148 142 151 165 161 162 97 149 194 190 191 169 187 180 187 201 236
247 248 261 270 268 259 254 234 218 209 193 191 184 175 179 171 169 171 173 173 171 166 166 164 161 160 165 170 181 180 168 178 176 161 153 160 170 169 172 193 194 203 200 169 201 165 207 198 224
250 254 264 271 269 267 248 243 210 214 206 196 185 174 172 165 166 172 171 172 173 170 167 163 159 160 163 176 187 194 191 180 166 151 145 163 175 180 178 170 167 186 159 164 262 145 220 241 267
248 258 263 271 271 259 254 246 209 197 200 193 180 169 165 162 163 169 167 163 168 165 162 162 156 159 163 174 187 191 208 190 172 166 159 172 170 179 176 155 159 160 169 194 208 198 181 226 278
237 251 250 249 245 240 235 240 185 179 173 173 168 165 164 164 163 157 158 162 168 168 165 160 156 162 168 175 184 183 204 196 178 191 179 184 176 172 166 162 159 164 183 201 202 196 200 215 229
234 242 248 253 263 261 228 233 166 145 133 140 151 156 155 156 154 154 156 163 171 169 165 159 157 164 170 174 180 177 189 199 188 196 192 188 190 152 148 160 159 168 214 214 207 219 210 197 216
238 241 251 257 263 274 253 202 152 136 136 135 141 146 151 157 154 154 159 167 172 170 165 159 156 161 167 171 170 167 168 179 188 172 206 203 166 155 145 157 158 174 210 228 215 224 220 185 213
246 258 253 261 259 264 267 254 206 158 157 138 133 134 141 150 160 156 157 165 164 163 158 153 153 159 163 166 175 174 176 183 191 174 178 198 175 152 145 162 171 180 201 212 208 222 212 192 205
232 245 255 264 269 264 262 258 187 144 140 142 149 148 135 137 142 148 148 154 157 157 158 155 152 157 166 171 173 171 175 183 189 194 183 190 187 176 175 192 191 194 206 211 216 220 206 205 214
250 253 252 251 257 268 266 237 185 135 151 150 138 127 111 117 125 131 135 135 144 150 154 155 159 165 169 169 167 173 174 181 189 193 194 190 191 197 198 204 204 210 215 220 222 231 209 211 217